Location: Gallinara
(44.0333°N, 8.2333°E)
Time: 16:08:45
(UTC+00:00)

Cosmos 1727 Rocket - Pass Details

Date: 25 September 2020
Orbit: 960 x 997 km, 82.9° (Epoch: 29 October)

Event Time Altitude Azimuth Distance (km) Brightness Sun altitude
Exits shadow 03:09:24 26° 191° (S) 1,846 5.1 -23.4°
Maximum altitude 03:13:13 84° 276° (W) 1,004 3.9 -22.7°
Drops below altitude 10° 03:19:34 10° 7° (N) 2,755 6.7 -21.7°
Sets 03:22:05 0° 8° (N) 3,703 7.4 -21.2°
